PulseSat

PulseSat

COSMOS 2432 (719)

Last updated on March 21, 2019, 3:13 a.m. UTC

1 32276U 07052B   19078.63389318 -.00000035  00000-0  10000-3 0  9993
2 32276  65.8280  44.2133 0013193 326.0710 243.0761  2.13103891 88696
UTC
Height (km)
Latitude
Longitude
Inclination
Orbital Period

Next 30 passes for location: Hong Kong

Rise time Rise Azimuth (degrees) Set time Set Azimuth (degrees) Duration Max altitude (degrees)

No matching passes for this satellites

PulseSat

PulseSat is the new satellites software and hardware trackering solution by Pulsely.
Satellite Two Line Element Set source: US Air Force Space Command

Download PulseSat for iOS
© 2017 Pulsely Limited